Location: Oakhurst
(33.6448°N, 111.9543°W)
Time: 21:42:42
(UTC+00:00)

Max Valier Satellite - Pass Details

Date: 03 August 2021
Orbit: 486 x 501 km, 97.2° (Epoch: 15 September)

Event Time Altitude Azimuth Distance (km) Brightness Sun altitude
Exits shadow 03:11:14 12° 128° (SE) 1,528 ? -9.2°
Maximum altitude 03:13:53 26° 73° (ENE) 979 ? -9.7°
Drops below altitude 10° 03:16:57 10° 15° (NNE) 1,681 ? -10.3°
Sets 03:19:14 0° 3° (N) 2,569 ? -10.7°
